"datetime","temp","dp","rain_mm","uv","mb"
"2013-11-22 00:00:00",1.8,1.2,0.0,0.0,1013.6
"2013-11-22 00:01:00",1.8,1.2,0.0,0.0,1013.6
"2013-11-22 00:02:00",1.8,1.2,0.0,0.0,1013.7
"2013-11-22 00:03:00",1.8,1.2,0.0,0.0,1013.7
"2013-11-22 00:04:00",1.7,1.2,0.0,0.0,1013.6
"2013-11-22 00:05:00",1.7,1.2,0.0,0.0,1013.6
"2013-11-22 00:06:00",1.7,1.2,0.0,0.0,1013.6
"2013-11-22 00:07:00",1.7,1.2,0.0,0.0,1013.6
"2013-11-22 00:08:00",1.7,1.2,0.0,0.0,1013.6
"2013-11-22 00:09:00",1.7,1.2,0.0,0.0,1013.6
"2013-11-22 00:10:00",1.7,1.2,0.0,0.0,1013.6
"2013-11-22 00:11:00",1.7,1.2,0.0,0.0,1013.6
"2013-11-22 00:12:00",1.7,1.1,0.0,0.0,1013.6
"2013-11-22 00:13:00",1.7,1.1,0.0,0.0,1013.6
"2013-11-22 00:14:00",1.7,1.1,0.0,0.0,1013.6
"2013-11-22 00:15:00",1.7,1.1,0.0,0.0,1013.6
"2013-11-22 00:16:00",1.7,1.1,0.0,0.0,1013.6
"2013-11-22 00:17:00",1.7,1.1,0.0,0.0,1013.7
"2013-11-22 00:18:00",1.7,1.1,0.0,0.0,1013.6
"2013-11-22 00:19:00",1.7,1.1,0.0,0.0,1013.6
"2013-11-22 00:20:00",1.7,1.1,0.0,0.0,1013.6
"2013-11-22 00:21:00",1.7,1.1,0.0,0.0,1013.6
"2013-11-22 00:22:00",1.7,1.1,0.0,0.0,1013.6
"2013-11-22 00:23:00",1.7,1.1,0.0,0.0,1013.6
"2013-11-22 00:24:00",1.7,1.1,0.0,0.0,1013.6
"2013-11-22 00:25:00",1.7,1.1,0.0,0.0,1013.6
"2013-11-22 00:26:00",1.7,1.1,0.0,0.0,1013.6
"2013-11-22 00:27:00",1.7,1.1,0.0,0.0,1013.6
"2013-11-22 00:28:00",1.7,1.1,0.0,0.0,1013.6
"2013-11-22 00:29:00",1.7,1.1,0.0,0.0,1013.6
"2013-11-22 00:30:00",1.7,1.1,0.0,0.0,1013.6
"2013-11-22 00:31:00",1.6,1.1,0.0,0.0,1013.6
"2013-11-22 00:32:00",1.6,1.1,0.0,0.0,1013.6
"2013-11-22 00:33:00",1.6,1.1,0.0,0.0,1013.6
"2013-11-22 00:34:00",1.7,1.1,0.0,0.0,1013.7
"2013-11-22 00:35:00",1.7,1.1,0.0,0.0,1013.7
"2013-11-22 00:36:00",1.7,1.1,0.0,0.0,1013.7
"2013-11-22 00:37:00",1.7,1.1,0.0,0.0,1013.7
"2013-11-22 00:38:00",1.7,1.1,0.0,0.0,1013.7
"2013-11-22 00:39:00",1.7,1.1,0.0,0.0,1013.7
"2013-11-22 00:40:00",1.7,1.1,0.0,0.0,1013.7
"2013-11-22 00:41:00",1.7,1.1,0.0,0.0,1013.7
"2013-11-22 00:42:00",1.6,1.1,0.0,0.0,1013.7
"2013-11-22 00:43:00",1.6,1.1,0.0,0.0,1013.7
"2013-11-22 00:44:00",1.7,1.1,0.0,0.0,1013.7
"2013-11-22 00:45:00",1.7,1.1,0.0,0.0,1013.7
"2013-11-22 00:46:00",1.7,1.1,0.0,0.0,1013.7
"2013-11-22 00:47:00",1.7,1.1,0.0,0.0,1013.7
"2013-11-22 00:48:00",1.7,1.1,0.0,0.0,1013.7
"2013-11-22 00:49:00",1.7,1.1,0.0,0.0,1013.6
"2013-11-22 00:50:00",1.7,1.1,0.0,0.0,1013.6
"2013-11-22 00:51:00",1.7,1.1,0.0,0.0,1013.6
"2013-11-22 00:52:00",1.7,1.1,0.0,0.0,1013.6
"2013-11-22 00:53:00",1.7,1.1,0.0,0.0,1013.6
"2013-11-22 00:54:00",1.7,1.1,0.0,0.0,1013.6
"2013-11-22 00:55:00",1.6,1.0,0.0,0.0,1013.6
"2013-11-22 00:56:00",1.6,1.0,0.0,0.0,1013.6
"2013-11-22 00:57:00",1.6,1.1,0.0,0.0,1013.6
"2013-11-22 00:58:00",1.6,1.1,0.0,0.0,1013.6
"2013-11-22 00:59:00",1.6,1.0,0.0,0.0,1013.6
"2013-11-22 01:00:00",1.6,1.0,0.0,0.0,1013.6
"2013-11-22 01:01:00",1.6,1.0,0.0,0.0,1013.6
"2013-11-22 01:02:00",1.6,1.0,0.0,0.0,1013.6
"2013-11-22 01:03:00",1.6,1.0,0.0,0.0,1013.6
"2013-11-22 01:04:00",1.6,1.0,0.0,0.0,1013.6
"2013-11-22 01:05:00",1.6,1.0,0.0,0.0,1013.7
"2013-11-22 01:06:00",1.6,1.0,0.0,0.0,1013.7
"2013-11-22 01:07:00",1.6,1.0,0.0,0.0,1013.7
"2013-11-22 01:08:00",1.6,1.0,0.0,0.0,1013.7
"2013-11-22 01:09:00",1.6,1.0,0.0,0.0,1013.6
"2013-11-22 01:10:00",1.6,1.0,0.0,0.0,1013.6
"2013-11-22 01:11:00",1.6,1.0,0.0,0.0,1013.7
"2013-11-22 01:12:00",1.6,1.0,0.0,0.0,1013.7
"2013-11-22 01:13:00",1.6,1.0,0.0,0.0,1013.7
"2013-11-22 01:14:00",1.6,1.0,0.0,0.0,1013.7
"2013-11-22 01:15:00",1.5,1.0,0.0,0.0,1013.7
"2013-11-22 01:16:00",1.5,0.9,0.0,0.0,1013.7
"2013-11-22 01:17:00",1.5,0.9,0.0,0.0,1013.7
"2013-11-22 01:18:00",1.5,0.9,0.0,0.0,1013.7
"2013-11-22 01:19:00",1.5,0.9,0.0,0.0,1013.7
"2013-11-22 01:20:00",1.5,0.9,0.0,0.0,1013.7
"2013-11-22 01:21:00",1.5,0.9,0.0,0.0,1013.7
"2013-11-22 01:22:00",1.4,0.9,0.0,0.0,1013.7
"2013-11-22 01:23:00",1.4,0.9,0.0,0.0,1013.8
"2013-11-22 01:24:00",1.4,0.9,0.0,0.0,1013.7
"2013-11-22 01:25:00",1.4,0.9,0.0,0.0,1013.7
"2013-11-22 01:26:00",1.4,0.9,0.0,0.0,1013.7
"2013-11-22 01:27:00",1.4,0.8,0.0,0.0,1013.7
"2013-11-22 01:28:00",1.4,0.8,0.0,0.0,1013.7
"2013-11-22 01:29:00",1.4,0.8,0.0,0.0,1013.7
"2013-11-22 01:30:00",1.4,0.8,0.0,0.0,1013.7
"2013-11-22 01:31:00",1.4,0.8,0.0,0.0,1013.7
"2013-11-22 01:32:00",1.3,0.8,0.0,0.0,1013.8
"2013-11-22 01:33:00",1.3,0.8,0.0,0.0,1013.8
"2013-11-22 01:34:00",1.3,0.8,0.0,0.0,1013.8
"2013-11-22 01:35:00",1.3,0.8,0.0,0.0,1013.8
"2013-11-22 01:36:00",1.3,0.8,0.0,0.0,1013.8
"2013-11-22 01:37:00",1.3,0.7,0.0,0.0,1013.9
"2013-11-22 01:38:00",1.3,0.7,0.0,0.0,1013.9
"2013-11-22 01:39:00",1.3,0.7,0.0,0.0,1013.9
"2013-11-22 01:40:00",1.3,0.7,0.0,0.0,1013.9
"2013-11-22 01:41:00",1.3,0.7,0.0,0.0,1013.9
"2013-11-22 01:42:00",1.3,0.7,0.0,0.0,1013.9
"2013-11-22 01:43:00",1.2,0.7,0.0,0.0,1013.9
"2013-11-22 01:44:00",1.2,0.7,0.0,0.0,1013.9
"2013-11-22 01:45:00",1.2,0.7,0.0,0.0,1013.9
"2013-11-22 01:46:00",1.2,0.7,0.0,0.0,1014.0
"2013-11-22 01:47:00",1.2,0.7,0.0,0.0,1014.0
"2013-11-22 01:48:00",1.2,0.6,0.0,0.0,1014.0
"2013-11-22 01:49:00",1.2,0.6,0.0,0.0,1014.0
"2013-11-22 01:50:00",1.2,0.6,0.0,0.0,1014.0
"2013-11-22 01:51:00",1.2,0.6,0.0,0.0,1014.0
"2013-11-22 01:52:00",1.2,0.6,0.0,0.0,1014.0
"2013-11-22 01:53:00",1.1,0.6,0.0,0.0,1014.0
"2013-11-22 01:54:00",1.1,0.5,0.0,0.0,1014.0
"2013-11-22 01:55:00",1.1,0.5,0.0,0.0,1014.0
"2013-11-22 01:56:00",1.1,0.5,0.0,0.0,1014.0
"2013-11-22 01:57:00",1.1,0.5,0.0,0.0,1014.0
"2013-11-22 01:58:00",1.1,0.5,0.0,0.0,1014.0
"2013-11-22 01:59:00",1.1,0.5,0.0,0.0,1014.0
"2013-11-22 02:00:00",1.1,0.5,0.0,0.0,1014.0
"2013-11-22 02:01:00",1.1,0.5,0.0,0.0,1014.0
"2013-11-22 02:02:00",1.1,0.5,0.0,0.0,1014.0
"2013-11-22 02:03:00",1.0,0.4,0.0,0.0,1014.0
"2013-11-22 02:04:00",1.0,0.4,0.0,0.0,1014.0
"2013-11-22 02:05:00",1.0,0.4,0.0,0.0,1014.0
"2013-11-22 02:06:00",1.0,0.4,0.0,0.0,1014.0
"2013-11-22 02:07:00",1.0,0.4,0.0,0.0,1014.0
"2013-11-22 02:08:00",0.9,0.4,0.0,0.0,1014.0
"2013-11-22 02:09:00",0.9,0.4,0.0,0.0,1014.1
"2013-11-22 02:10:00",0.9,0.4,0.0,0.0,1014.1
"2013-11-22 02:11:00",0.9,0.4,0.0,0.0,1014.1
"2013-11-22 02:12:00",0.9,0.3,0.0,0.0,1014.1
"2013-11-22 02:13:00",0.9,0.3,0.0,0.0,1014.1
"2013-11-22 02:14:00",0.9,0.2,0.0,0.0,1014.1
"2013-11-22 02:15:00",0.9,0.2,0.0,0.0,1014.1
"2013-11-22 02:16:00",0.8,0.1,0.0,0.0,1014.1
"2013-11-22 02:17:00",0.8,0.1,0.0,0.0,1014.1
"2013-11-22 02:18:00",0.8,0.1,0.0,0.0,1014.1
"2013-11-22 02:19:00",0.8,0.1,0.0,0.0,1014.1
"2013-11-22 02:20:00",0.8,0.1,0.0,0.0,1014.1
"2013-11-22 02:21:00",0.8,0.1,0.0,0.0,1014.1
"2013-11-22 02:22:00",0.8,0.1,0.0,0.0,1014.1
"2013-11-22 02:23:00",0.8,0.1,0.0,0.0,1014.1
"2013-11-22 02:24:00",0.8,0.1,0.0,0.0,1014.1
"2013-11-22 02:25:00",0.7,0.0,0.0,0.0,1014.1
"2013-11-22 02:26:00",0.7,0.0,0.0,0.0,1014.1
"2013-11-22 02:27:00",0.7,0.0,0.0,0.0,1014.1
"2013-11-22 02:28:00",0.7,0.0,0.0,0.0,1014.1
"2013-11-22 02:29:00",0.7,0.0,0.0,0.0,1014.1
"2013-11-22 02:30:00",0.7,0.0,0.0,0.0,1014.1
"2013-11-22 02:31:00",0.7,0.0,0.0,0.0,1014.1
"2013-11-22 02:32:00",0.7,0.0,0.0,0.0,1014.1
"2013-11-22 02:33:00",0.7,"-0.1",0.0,0.0,1014.1
"2013-11-22 02:34:00",0.6,"-0.1",0.0,0.0,1014.1
"2013-11-22 02:35:00",0.6,"-0.1",0.0,0.0,1014.1
"2013-11-22 02:36:00",0.6,"-0.1",0.0,0.0,1014.1
"2013-11-22 02:37:00",0.6,"-0.1",0.0,0.0,1014.1
"2013-11-22 02:38:00",0.6,"-0.2",0.0,0.0,1014.1
"2013-11-22 02:39:00",0.6,"-0.2",0.0,0.0,1014.1
"2013-11-22 02:40:00",0.5,"-0.2",0.0,0.0,1014.1
"2013-11-22 02:41:00",0.5,"-0.2",0.0,0.0,1014.1
"2013-11-22 02:42:00",0.5,"-0.2",0.0,0.0,1014.1
"2013-11-22 02:43:00",0.5,"-0.2",0.0,0.0,1014.1
"2013-11-22 02:44:00",0.5,"-0.2",0.0,0.0,1014.1
"2013-11-22 02:45:00",0.4,"-0.3",0.0,0.0,1014.1
"2013-11-22 02:46:00",0.4,"-0.3",0.0,0.0,1014.1
"2013-11-22 02:47:00",0.4,"-0.3",0.0,0.0,1014.1
"2013-11-22 02:48:00",0.4,"-0.3",0.0,0.0,1014.1
"2013-11-22 02:49:00",0.4,"-0.3",0.0,0.0,1014.2
"2013-11-22 02:50:00",0.4,"-0.3",0.0,0.0,1014.2
"2013-11-22 02:51:00",0.4,"-0.3",0.0,0.0,1014.2
"2013-11-22 02:52:00",0.4,"-0.3",0.0,0.0,1014.2
"2013-11-22 02:53:00",0.3,"-0.4",0.0,0.0,1014.2
"2013-11-22 02:54:00",0.3,"-0.4",0.0,0.0,1014.3
"2013-11-22 02:55:00",0.3,"-0.4",0.0,0.0,1014.3
"2013-11-22 02:56:00",0.3,"-0.4",0.0,0.0,1014.3
"2013-11-22 02:57:00",0.3,"-0.4",0.0,0.0,1014.3
"2013-11-22 02:58:00",0.3,"-0.4",0.0,0.0,1014.4
"2013-11-22 02:59:00",0.3,"-0.3",0.0,0.0,1014.4
"2013-11-22 03:00:00",0.3,"-0.3",0.0,0.0,1014.4
"2013-11-22 03:01:00",0.3,"-0.3",0.0,0.0,1014.3
"2013-11-22 03:02:00",0.3,"-0.3",0.0,0.0,1014.3
"2013-11-22 03:03:00",0.3,"-0.4",0.0,0.0,1014.3
"2013-11-22 03:04:00",0.3,"-0.4",0.0,0.0,1014.3
"2013-11-22 03:05:00",0.3,"-0.3",0.0,0.0,1014.4
"2013-11-22 03:06:00",0.2,"-0.3",0.0,0.0,1014.3
"2013-11-22 03:07:00",0.2,"-0.3",0.0,0.0,1014.4
"2013-11-22 03:08:00",0.2,"-0.3",0.0,0.0,1014.4
"2013-11-22 03:09:00",0.2,"-0.3",0.0,0.0,1014.4
"2013-11-22 03:10:00",0.2,"-0.3",0.0,0.0,1014.4
"2013-11-22 03:11:00",0.2,"-0.3",0.0,0.0,1014.4
"2013-11-22 03:12:00",0.2,"-0.3",0.0,0.0,1014.4
"2013-11-22 03:13:00",0.2,"-0.3",0.0,0.0,1014.4
"2013-11-22 03:14:00",0.2,"-0.3",0.0,0.0,1014.4
"2013-11-22 03:15:00",0.2,"-0.3",0.0,0.0,1014.4
"2013-11-22 03:16:00",0.2,"-0.3",0.0,0.0,1014.4
"2013-11-22 03:17:00",0.2,"-0.3",0.0,0.0,1014.5
"2013-11-22 03:18:00",0.2,"-0.3",0.0,0.0,1014.5
"2013-11-22 03:19:00",0.2,"-0.3",0.0,0.0,1014.4
"2013-11-22 03:20:00",0.2,"-0.3",0.0,0.0,1014.4
"2013-11-22 03:21:00",0.2,"-0.3",0.0,0.0,1014.4
"2013-11-22 03:22:00",0.2,"-0.3",0.0,0.0,1014.4
"2013-11-22 03:23:00",0.2,"-0.3",0.0,0.0,1014.4
"2013-11-22 03:24:00",0.2,"-0.3",0.0,0.0,1014.4
"2013-11-22 03:25:00",0.2,"-0.3",0.0,0.0,1014.4
"2013-11-22 03:26:00",0.2,"-0.3",0.0,0.0,1014.4
"2013-11-22 03:27:00",0.2,"-0.3",0.0,0.0,1014.4
"2013-11-22 03:28:00",0.2,"-0.3",0.0,0.0,1014.4
"2013-11-22 03:29:00",0.2,"-0.3",0.0,0.0,1014.4
"2013-11-22 03:30:00",0.2,"-0.3",0.0,0.0,1014.4
"2013-11-22 03:31:00",0.2,"-0.3",0.0,0.0,1014.4
"2013-11-22 03:32:00",0.2,"-0.3",0.0,0.0,1014.4
"2013-11-22 03:33:00",0.2,"-0.3",0.0,0.0,1014.4
"2013-11-22 03:34:00",0.2,"-0.3",0.0,0.0,1014.4
"2013-11-22 03:35:00",0.2,"-0.2",0.0,0.0,1014.4
"2013-11-22 03:36:00",0.2,"-0.2",0.0,0.0,1014.4
"2013-11-22 03:37:00",0.2,"-0.2",0.0,0.0,1014.4
"2013-11-22 03:38:00",0.2,"-0.3",0.0,0.0,1014.4
"2013-11-22 03:39:00",0.2,"-0.3",0.0,0.0,1014.4
"2013-11-22 03:40:00",0.2,"-0.3",0.0,0.0,1014.4
"2013-11-22 03:41:00",0.2,"-0.3",0.0,0.0,1014.4
"2013-11-22 03:42:00",0.2,"-0.3",0.0,0.0,1014.4
"2013-11-22 03:43:00",0.2,"-0.3",0.0,0.0,1014.4
"2013-11-22 03:44:00",0.2,"-0.4",0.0,0.0,1014.4
"2013-11-22 03:45:00",0.2,"-0.3",0.0,0.0,1014.4
"2013-11-22 03:46:00",0.2,"-0.3",0.0,0.0,1014.4
"2013-11-22 03:47:00",0.2,"-0.3",0.0,0.0,1014.4
"2013-11-22 03:48:00",0.2,"-0.4",0.0,0.0,1014.4
"2013-11-22 03:49:00",0.2,"-0.4",0.0,0.0,1014.4
"2013-11-22 03:50:00",0.2,"-0.4",0.0,0.0,1014.5
"2013-11-22 03:51:00",0.2,"-0.4",0.0,0.0,1014.4
"2013-11-22 03:52:00",0.2,"-0.4",0.0,0.0,1014.5
"2013-11-22 03:53:00",0.2,"-0.4",0.0,0.0,1014.5
"2013-11-22 03:54:00",0.2,"-0.4",0.0,0.0,1014.5
"2013-11-22 03:55:00",0.2,"-0.4",0.0,0.0,1014.5
"2013-11-22 03:56:00",0.2,"-0.4",0.0,0.0,1014.5
"2013-11-22 03:57:00",0.2,"-0.4",0.0,0.0,1014.5
"2013-11-22 03:58:00",0.2,"-0.4",0.0,0.0,1014.5
"2013-11-22 03:59:00",0.2,"-0.4",0.0,0.0,1014.5
"2013-11-22 04:00:00",0.2,"-0.4",0.0,0.0,1014.5
"2013-11-22 04:01:00",0.2,"-0.4",0.0,0.0,1014.5
"2013-11-22 04:02:00",0.2,"-0.4",0.0,0.0,1014.6
"2013-11-22 04:03:00",0.2,"-0.4",0.0,0.0,1014.6
"2013-11-22 04:04:00",0.2,"-0.4",0.0,0.0,1014.5
"2013-11-22 04:05:00",0.1,"-0.4",0.0,0.0,1014.6
"2013-11-22 04:06:00",0.1,"-0.4",0.0,0.0,1014.6
"2013-11-22 04:07:00",0.1,"-0.4",0.0,0.0,1014.6
"2013-11-22 04:08:00",0.1,"-0.5",0.0,0.0,1014.7
"2013-11-22 04:09:00",0.1,"-0.5",0.0,0.0,1014.7
"2013-11-22 04:10:00",0.1,"-0.5",0.0,0.0,1014.7
"2013-11-22 04:11:00",0.1,"-0.5",0.0,0.0,1014.7
"2013-11-22 04:12:00",0.1,"-0.5",0.0,0.0,1014.7
"2013-11-22 04:13:00",0.1,"-0.5",0.0,0.0,1014.8
"2013-11-22 04:14:00",0.1,"-0.5",0.0,0.0,1014.7
"2013-11-22 04:15:00",0.1,"-0.5",0.0,0.0,1014.7
"2013-11-22 04:16:00",0.1,"-0.5",0.0,0.0,1014.7
"2013-11-22 04:17:00",0.1,"-0.5",0.0,0.0,1014.6
"2013-11-22 04:18:00",0.1,"-0.5",0.0,0.0,1014.7
"2013-11-22 04:19:00",0.1,"-0.5",0.0,0.0,1014.8
"2013-11-22 04:20:00",0.1,"-0.5",0.0,0.0,1014.8
"2013-11-22 04:21:00",0.1,"-0.5",0.0,0.0,1014.8
"2013-11-22 04:22:00",0.1,"-0.5",0.0,0.0,1014.8
"2013-11-22 04:23:00",0.1,"-0.5",0.0,0.0,1014.8
"2013-11-22 04:24:00",0.1,"-0.5",0.0,0.0,1014.8
"2013-11-22 04:25:00",0.1,"-0.5",0.0,0.0,1014.8
"2013-11-22 04:26:00",0.1,"-0.5",0.0,0.0,1014.9
"2013-11-22 04:27:00",0.0,"-0.4",0.0,0.0,1014.8
"2013-11-22 04:28:00",0.0,"-0.5",0.0,0.0,1014.9
"2013-11-22 04:29:00",0.0,"-0.4",0.0,0.0,1014.9
"2013-11-22 04:30:00",0.0,"-0.4",0.0,0.0,1014.9
"2013-11-22 04:31:00",0.0,"-0.4",0.0,0.0,1015.0
"2013-11-22 04:32:00",0.0,"-0.4",0.0,0.0,1014.9
"2013-11-22 04:33:00",0.0,"-0.4",0.0,0.0,1014.9
"2013-11-22 04:34:00",0.0,"-0.4",0.0,0.0,1014.9
"2013-11-22 04:35:00",0.0,"-0.4",0.0,0.0,1015.0
"2013-11-22 04:36:00",0.0,"-0.4",0.0,0.0,1015.0
"2013-11-22 04:37:00",0.0,"-0.4",0.0,0.0,1015.0
"2013-11-22 04:38:00",0.0,"-0.4",0.0,0.0,1015.0
"2013-11-22 04:39:00",0.0,"-0.4",0.0,0.0,1015.0
"2013-11-22 04:40:00",0.0,"-0.4",0.0,0.0,1015.0
"2013-11-22 04:41:00",0.0,"-0.5",0.0,0.0,1015.0
"2013-11-22 04:42:00","-0.1","-0.5",0.0,0.0,1015.0
"2013-11-22 04:43:00","-0.1","-0.5",0.0,0.0,1015.0
"2013-11-22 04:44:00","-0.1","-0.5",0.0,0.0,1015.0
"2013-11-22 04:45:00","-0.1","-0.5",0.0,0.0,1015.0
"2013-11-22 04:46:00","-0.1","-0.5",0.0,0.0,1015.0
"2013-11-22 04:47:00","-0.1","-0.5",0.0,0.0,1015.0
"2013-11-22 04:48:00","-0.1","-0.5",0.0,0.0,1015.1
"2013-11-22 04:49:00","-0.1","-0.5",0.0,0.0,1015.1
"2013-11-22 04:50:00","-0.1","-0.5",0.0,0.0,1015.1
"2013-11-22 04:51:00","-0.1","-0.6",0.0,0.0,1015.1
"2013-11-22 04:52:00","-0.1","-0.6",0.0,0.0,1015.1
"2013-11-22 04:53:00","-0.1","-0.6",0.0,0.0,1015.2
"2013-11-22 04:54:00","-0.1","-0.7",0.0,0.0,1015.2
"2013-11-22 04:55:00","-0.1","-0.6",0.0,0.0,1015.2
"2013-11-22 04:56:00","-0.1","-0.7",0.0,0.0,1015.2
"2013-11-22 04:57:00","-0.1","-0.7",0.0,0.0,1015.2
"2013-11-22 04:58:00","-0.1","-0.7",0.0,0.0,1015.2
"2013-11-22 04:59:00","-0.1","-0.7",0.0,0.0,1015.2
"2013-11-22 05:00:00","-0.1","-0.7",0.0,0.0,1015.2
"2013-11-22 05:01:00","-0.1","-0.7",0.0,0.0,1015.2
"2013-11-22 05:02:00","-0.1","-0.7",0.0,0.0,1015.2
"2013-11-22 05:03:00","-0.1","-0.7",0.0,0.0,1015.3
"2013-11-22 05:04:00","-0.1","-0.5",0.0,0.0,1015.3
"2013-11-22 05:05:00","-0.1","-0.5",0.0,0.0,1015.3
"2013-11-22 05:06:00","-0.1","-0.5",0.0,0.0,1015.3
"2013-11-22 05:07:00","-0.1","-0.5",0.0,0.0,1015.2
"2013-11-22 05:08:00","-0.1","-0.5",0.0,0.0,1015.2
"2013-11-22 05:09:00","-0.1","-0.5",0.0,0.0,1015.2
"2013-11-22 05:10:00","-0.1","-0.5",0.0,0.0,1015.2
"2013-11-22 05:11:00","-0.1","-0.5",0.0,0.0,1015.2
"2013-11-22 05:12:00","-0.1","-0.5",0.0,0.0,1015.2
"2013-11-22 05:13:00","-0.1","-0.5",0.0,0.0,1015.2
"2013-11-22 05:14:00","-0.1","-0.5",0.0,0.0,1015.2
"2013-11-22 05:15:00","-0.1","-0.5",0.0,0.0,1015.2
"2013-11-22 05:16:00","-0.1","-0.5",0.0,0.0,1015.2
"2013-11-22 05:17:00","-0.1","-0.5",0.0,0.0,1015.3
"2013-11-22 05:18:00","-0.1","-0.5",0.0,0.0,1015.3
"2013-11-22 05:19:00","-0.1","-0.5",0.0,0.0,1015.3
"2013-11-22 05:20:00","-0.1","-0.5",0.0,0.0,1015.3
"2013-11-22 05:21:00","-0.1","-0.5",0.0,0.0,1015.3
"2013-11-22 05:22:00","-0.1","-0.5",0.0,0.0,1015.3
"2013-11-22 05:23:00","-0.1","-0.5",0.0,0.0,1015.3
"2013-11-22 05:24:00","-0.1","-0.5",0.0,0.0,1015.3
"2013-11-22 05:25:00","-0.1","-0.5",0.0,0.0,1015.3
"2013-11-22 05:26:00","-0.1","-0.5",0.0,0.0,1015.3
"2013-11-22 05:27:00",0.0,"-0.5",0.0,0.0,1015.3
"2013-11-22 05:28:00",0.0,"-0.4",0.0,0.0,1015.3
"2013-11-22 05:29:00",0.0,"-0.4",0.0,0.0,1015.3
"2013-11-22 05:30:00",0.0,"-0.4",0.0,0.0,1015.4
"2013-11-22 05:31:00",0.0,"-0.4",0.0,0.0,1015.3
"2013-11-22 05:32:00",0.0,"-0.4",0.0,0.0,1015.3
"2013-11-22 05:33:00",0.0,"-0.4",0.0,0.0,1015.4
"2013-11-22 05:34:00",0.1,"-0.4",0.0,0.0,1015.4
"2013-11-22 05:35:00",0.1,"-0.2",0.0,0.0,1015.4
"2013-11-22 05:36:00",0.1,"-0.2",0.0,0.0,1015.3
"2013-11-22 05:37:00",0.1,"-0.2",0.0,0.0,1015.3
"2013-11-22 05:38:00",0.1,"-0.3",0.0,0.0,1015.4
"2013-11-22 05:39:00",0.1,"-0.1",0.0,0.0,1015.4
"2013-11-22 05:40:00",0.2,"-0.1",0.0,0.0,1015.4
"2013-11-22 05:41:00",0.2,"-0.1",0.0,0.0,1015.4
"2013-11-22 05:42:00",0.2,"-0.1",0.0,0.0,1015.4
"2013-11-22 05:43:00",0.2,"-0.1",0.0,0.0,1015.4
"2013-11-22 05:44:00",0.2,"-0.1",0.0,0.0,1015.4
"2013-11-22 05:45:00",0.2,0.0,0.0,0.0,1015.4
"2013-11-22 05:46:00",0.3,0.0,0.0,0.0,1015.4
"2013-11-22 05:47:00",0.3,0.0,0.0,0.0,1015.4
"2013-11-22 05:48:00",0.3,0.0,0.0,0.0,1015.4
"2013-11-22 05:49:00",0.3,0.0,0.0,0.0,1015.5
"2013-11-22 05:50:00",0.3,0.0,0.0,0.0,1015.4
"2013-11-22 05:51:00",0.3,0.1,0.0,0.0,1015.5
"2013-11-22 05:52:00",0.3,0.1,0.0,0.0,1015.5
"2013-11-22 05:53:00",0.4,0.1,0.0,0.0,1015.5
"2013-11-22 05:54:00",0.4,0.1,0.0,0.0,1015.5
"2013-11-22 05:55:00",0.4,0.1,0.0,0.0,1015.5
"2013-11-22 05:56:00",0.4,0.2,0.0,0.0,1015.6
"2013-11-22 05:57:00",0.4,0.2,0.0,0.0,1015.6
"2013-11-22 05:58:00",0.5,0.2,0.0,0.0,1015.6
"2013-11-22 05:59:00",0.5,0.2,0.0,0.0,1015.6
"2013-11-22 06:00:00",0.5,0.2,0.0,0.0,1015.7
"2013-11-22 06:01:00",0.5,0.2,0.0,0.0,1015.7
"2013-11-22 06:02:00",0.5,0.2,0.0,0.0,1015.7
"2013-11-22 06:03:00",0.5,0.3,0.0,0.0,1015.7
"2013-11-22 06:04:00",0.6,0.3,0.0,0.0,1015.7
"2013-11-22 06:05:00",0.6,0.3,0.0,0.0,1015.7
"2013-11-22 06:06:00",0.6,0.3,0.0,0.0,1015.8
"2013-11-22 06:07:00",0.6,0.3,0.0,0.0,1015.8
"2013-11-22 06:08:00",0.6,0.3,0.0,0.0,1015.8
"2013-11-22 06:09:00",0.6,0.4,0.0,0.0,1015.8
"2013-11-22 06:10:00",0.7,0.4,0.0,0.0,1015.8
"2013-11-22 06:11:00",0.7,0.4,0.0,0.0,1015.9
"2013-11-22 06:12:00",0.7,0.4,0.0,0.0,1015.9
"2013-11-22 06:13:00",0.7,0.4,0.0,0.0,1015.9
"2013-11-22 06:14:00",0.7,0.4,0.0,0.0,1015.9
"2013-11-22 06:15:00",0.7,0.4,0.0,0.0,1016.0
"2013-11-22 06:16:00",0.7,0.5,0.0,0.0,1015.9
"2013-11-22 06:17:00",0.8,0.5,0.0,0.0,1015.9
"2013-11-22 06:18:00",0.8,0.5,0.0,0.0,1015.9
"2013-11-22 06:19:00",0.8,0.5,0.0,0.0,1015.9
"2013-11-22 06:20:00",0.8,0.6,0.0,0.0,1015.9
"2013-11-22 06:21:00",0.8,0.6,0.0,0.0,1015.9
"2013-11-22 06:22:00",0.8,0.6,0.0,0.0,1015.9
"2013-11-22 06:23:00",0.9,0.6,0.0,0.0,1016.0
"2013-11-22 06:24:00",0.9,0.8,0.0,0.0,1016.0
"2013-11-22 06:25:00",0.9,0.8,0.0,0.0,1015.9
"2013-11-22 06:26:00",0.9,0.8,0.0,0.0,1015.9
"2013-11-22 06:27:00",0.9,0.8,0.0,0.0,1016.0
"2013-11-22 06:28:00",1.0,0.8,0.0,0.0,1016.0
"2013-11-22 06:29:00",1.0,0.9,0.0,0.0,1016.0
"2013-11-22 06:30:00",1.0,0.9,0.0,0.0,1016.0
"2013-11-22 06:31:00",1.0,0.9,0.0,0.0,1016.0
"2013-11-22 06:32:00",1.0,0.9,0.0,0.0,1016.1
"2013-11-22 06:33:00",1.0,0.9,0.0,0.0,1016.1
"2013-11-22 06:34:00",1.1,0.9,0.0,0.0,1016.1
"2013-11-22 06:35:00",1.1,0.9,0.0,0.0,1016.1
"2013-11-22 06:36:00",1.1,0.9,0.0,0.0,1016.1
"2013-11-22 06:37:00",1.1,0.9,0.0,0.0,1016.1
"2013-11-22 06:38:00",1.1,0.9,0.0,0.0,1016.1
"2013-11-22 06:39:00",1.1,0.8,0.0,0.0,1016.1
"2013-11-22 06:40:00",1.1,0.9,0.0,0.0,1016.1
"2013-11-22 06:41:00",1.1,0.8,0.0,0.0,1016.1
"2013-11-22 06:42:00",1.1,0.8,0.0,0.0,1016.1
"2013-11-22 06:43:00",1.1,0.8,0.0,0.0,1016.2
"2013-11-22 06:44:00",1.1,0.8,0.0,0.0,1016.2
"2013-11-22 06:45:00",1.1,0.8,0.0,0.0,1016.2
"2013-11-22 06:46:00",1.1,0.8,0.0,0.0,1016.2
"2013-11-22 06:47:00",1.1,0.8,0.0,0.0,1016.2
"2013-11-22 06:48:00",1.1,0.8,0.0,0.0,1016.2
"2013-11-22 06:49:00",1.1,0.8,0.0,0.0,1016.2
"2013-11-22 06:50:00",1.1,0.8,0.0,0.0,1016.2
"2013-11-22 06:51:00",1.1,0.8,0.0,0.0,1016.2
"2013-11-22 06:52:00",1.1,0.8,0.0,0.0,1016.2
"2013-11-22 06:53:00",1.1,0.8,0.0,0.0,1016.2
"2013-11-22 06:54:00",1.1,0.8,0.0,0.0,1016.1
"2013-11-22 06:55:00",1.1,0.8,0.0,0.0,1016.2
"2013-11-22 06:56:00",1.1,0.8,0.0,0.0,1016.1
"2013-11-22 06:57:00",1.1,0.8,0.0,0.0,1016.2
"2013-11-22 06:58:00",1.1,0.8,0.0,0.0,1016.1
"2013-11-22 06:59:00",1.1,0.8,0.0,0.0,1016.1
"2013-11-22 07:00:00",1.1,0.8,0.0,0.0,1016.1
"2013-11-22 07:01:00",1.1,0.8,0.0,0.0,1016.1
"2013-11-22 07:02:00",1.1,0.8,0.0,0.0,1016.1
"2013-11-22 07:03:00",1.1,0.8,0.0,0.0,1016.1
"2013-11-22 07:04:00",1.1,0.8,0.0,0.0,1016.1
"2013-11-22 07:05:00",1.1,0.8,0.0,0.0,1016.1
"2013-11-22 07:06:00",1.1,0.8,0.0,0.0,1016.1
"2013-11-22 07:07:00",1.1,0.8,0.0,0.0,1016.1
"2013-11-22 07:08:00",1.1,0.8,0.0,0.0,1016.2
"2013-11-22 07:09:00",1.1,0.8,0.0,0.0,1016.2
"2013-11-22 07:10:00",1.1,0.8,0.0,0.0,1016.3
"2013-11-22 07:11:00",1.1,0.8,0.0,0.0,1016.3
"2013-11-22 07:12:00",1.1,0.8,0.0,0.0,1016.3
"2013-11-22 07:13:00",1.1,0.8,0.0,0.0,1016.3
"2013-11-22 07:14:00",1.1,0.8,0.0,0.0,1016.3
"2013-11-22 07:15:00",1.1,0.8,0.0,0.0,1016.4
"2013-11-22 07:16:00",1.1,0.8,0.0,0.0,1016.4
"2013-11-22 07:17:00",1.1,0.8,0.0,0.0,1016.4
"2013-11-22 07:18:00",1.1,0.8,0.0,0.0,1016.4
"2013-11-22 07:19:00",1.1,0.8,0.0,0.0,1016.4
"2013-11-22 07:20:00",1.1,0.8,0.0,0.0,1016.4
"2013-11-22 07:21:00",1.1,0.8,0.0,0.0,1016.4
"2013-11-22 07:22:00",1.1,0.8,0.0,0.0,1016.4
"2013-11-22 07:23:00",1.1,0.8,0.0,0.0,1016.4
"2013-11-22 07:24:00",1.1,0.8,0.0,0.0,1016.4
"2013-11-22 07:25:00",1.1,0.8,0.0,0.0,1016.4
"2013-11-22 07:26:00",1.1,0.8,0.0,0.0,1016.4
"2013-11-22 07:27:00",1.1,0.8,0.0,0.0,1016.4
"2013-11-22 07:28:00",1.1,0.8,0.0,0.0,1016.4
"2013-11-22 07:29:00",1.1,0.8,0.0,0.0,1016.4
"2013-11-22 07:30:00",1.1,0.8,0.0,0.0,1016.5
"2013-11-22 07:31:00",1.1,0.8,0.0,0.0,1016.5
"2013-11-22 07:32:00",1.1,0.8,0.0,0.0,1016.5
"2013-11-22 07:33:00",1.1,0.8,0.0,0.0,1016.5
"2013-11-22 07:34:00",1.1,0.8,0.0,0.0,1016.5
"2013-11-22 07:35:00",1.1,0.8,0.0,0.0,1016.5
"2013-11-22 07:36:00",1.1,0.8,0.0,0.0,1016.5
"2013-11-22 07:37:00",1.1,0.8,0.0,0.0,1016.6
"2013-11-22 07:38:00",1.1,0.8,0.0,0.0,1016.6
"2013-11-22 07:39:00",1.1,0.8,0.0,0.0,1016.6
"2013-11-22 07:40:00",1.1,0.8,0.0,0.0,1016.6
"2013-11-22 07:41:00",1.1,0.8,0.0,0.0,1016.6
"2013-11-22 07:42:00",1.1,0.8,0.0,0.0,1016.6
"2013-11-22 07:43:00",1.1,0.8,0.0,0.0,1016.6
"2013-11-22 07:44:00",1.0,0.7,0.0,0.0,1016.6
"2013-11-22 07:45:00",1.0,0.7,0.0,0.0,1016.6
"2013-11-22 07:46:00",1.0,0.7,0.0,0.0,1016.6
"2013-11-22 07:47:00",1.0,0.7,0.0,0.0,1016.6
"2013-11-22 07:48:00",1.0,0.7,0.0,0.0,1016.6
"2013-11-22 07:49:00",1.0,0.7,0.0,0.0,1016.6
"2013-11-22 07:50:00",1.0,0.7,0.0,0.0,1016.6
"2013-11-22 07:51:00",1.0,0.7,0.0,0.0,1016.6
"2013-11-22 07:52:00",1.0,0.7,0.0,0.0,1016.6
"2013-11-22 07:53:00",1.0,0.7,0.0,0.0,1016.6
"2013-11-22 07:54:00",1.0,0.7,0.0,0.0,1016.6
"2013-11-22 07:55:00",1.0,0.7,0.0,0.0,1016.6
"2013-11-22 07:56:00",1.0,0.7,0.0,0.0,1016.6
"2013-11-22 07:57:00",1.0,0.7,0.0,0.0,1016.6
"2013-11-22 07:58:00",1.0,0.7,0.0,0.0,1016.6
"2013-11-22 07:59:00",1.0,0.7,0.0,0.0,1016.6
"2013-11-22 08:00:00",1.0,0.7,0.0,0.0,1016.6
"2013-11-22 08:01:00",1.0,0.7,0.0,0.0,1016.6
"2013-11-22 08:02:00",1.0,0.7,0.0,0.0,1016.6
"2013-11-22 08:03:00",1.0,0.7,0.0,0.0,1016.6
"2013-11-22 08:04:00",1.0,0.7,0.0,0.0,1016.6
"2013-11-22 08:05:00",1.0,0.7,0.0,0.0,1016.6
"2013-11-22 08:06:00",1.0,0.7,0.0,0.0,1016.6
"2013-11-22 08:07:00",1.0,0.7,0.0,0.0,1016.6
"2013-11-22 08:08:00",1.0,0.7,0.0,0.0,1016.7
"2013-11-22 08:09:00",1.0,0.7,0.0,0.0,1016.6
"2013-11-22 08:10:00",1.0,0.7,0.0,0.0,1016.7
"2013-11-22 08:11:00",1.0,0.7,0.0,0.0,1016.7
"2013-11-22 08:12:00",1.0,0.7,0.0,0.0,1016.7
"2013-11-22 08:13:00",1.0,0.7,0.0,0.0,1016.7
"2013-11-22 08:14:00",1.0,0.7,0.0,0.0,1016.7
"2013-11-22 08:15:00",1.0,0.7,0.0,0.0,1016.7
"2013-11-22 08:16:00",1.0,0.7,0.0,0.0,1016.8
"2013-11-22 08:17:00",1.0,0.7,0.0,0.0,1016.8
"2013-11-22 08:18:00",1.0,0.7,0.0,0.0,1016.8
"2013-11-22 08:19:00",1.0,0.7,0.0,0.0,1016.8
"2013-11-22 08:20:00",1.0,0.7,0.0,0.0,1016.8
"2013-11-22 08:21:00",1.0,0.7,0.0,0.0,1016.8
"2013-11-22 08:22:00",1.1,0.8,0.0,0.0,1016.8
"2013-11-22 08:23:00",1.1,0.8,0.0,0.0,1016.8
"2013-11-22 08:24:00",1.0,0.8,0.0,0.0,1016.8
"2013-11-22 08:25:00",1.1,0.8,0.0,0.0,1016.8
"2013-11-22 08:26:00",1.0,0.8,0.0,0.0,1016.8
"2013-11-22 08:27:00",1.1,0.8,0.0,0.0,1016.9
"2013-11-22 08:28:00",1.1,0.8,0.0,0.0,1016.9
"2013-11-22 08:29:00",1.1,0.8,0.0,0.0,1016.9
"2013-11-22 08:30:00",1.0,0.8,0.0,0.0,1016.9
"2013-11-22 08:31:00",1.1,0.8,0.0,0.0,1016.9
"2013-11-22 08:32:00",1.0,0.8,0.0,0.0,1016.9
"2013-11-22 08:33:00",1.1,0.8,0.0,0.0,1016.9
"2013-11-22 08:34:00",1.0,0.8,0.0,0.0,1016.9
"2013-11-22 08:35:00",1.0,0.7,0.0,0.0,1016.9